Weather History for KLNK - September, 2013

Change the Weather History Date:

Thursday, September 26, 2013

  Actual Average Record
Temperature  
Mean Temperature 77 °F 61 °F  
Max Temperature 90 °F 74 °F 95 °F (1990)
Min Temperature 63 °F 48 °F 28 °F (1984)
Degree Days  
Heating Degree Days 0 6  
Month to date heating degree days 21 68  
Since 1 July heating degree days 24 74  
Cooling Degree Days 12 2  
Month to date cooling degree days 187 116  
Year to date cooling degree days 1202 1151  
Growing Degree Days 26 (Base 50)    
Moisture  
Dew Point 57 °F    
Average Humidity 58    
Maximum Humidity 84    
Minimum Humidity 32    
Precipitation  
Precipitation 0.00 in 0.08 in 1.60 in (1936)
Month to date precipitation 1.75 2.67  
Year to date precipitation 22.20 24.25  
Snow  
Snow 0.00 in 0.00 in - ()
Month to date snowfall 0.0 0.0  
Since 1 July snowfall 0.0 0.0  
Snow Depth 0.00 in    
Sea Level Pressure  
Sea Level Pressure 29.73 in    
Wind  
Wind Speed 18 mph (SSE)    
Max Wind Speed 31 mph    
Max Gust Speed 43 mph    
Visibility 10 miles    
Events      
T = Trace of Precipitation, MM = Missing Value Source: NWS Daily Summary

Daily Weather History Graph

Daily Weather History Graph

Search for Another Location

Airport or City:

Trip Planner

Search our weather history database for the weather conditions in past years. The results will help you decide how hot, cold, wet, or windy it might be!

Date:

Astronomy

Sep. 26, 2013 Rise Set
Actual Time 7:18 AM CDT 7:16 PM CDT
Civil Twilight 6:51 AM CDT 7:44 PM CDT
Nautical Twilight 6:19 AM CDT 8:16 PM CDT
Astronomical Twilight 5:47 AM CDT 8:48 PM CDT
Moon No Moon Rise 2:13 PM CDT (9/26)
Length of Visible Light 12h 52m
Length of Day
11h 58m
Waning Gibbous, 54% of the Moon is Illuminated
Sep 26
Waning Gibbous
Sep 26
Last Quarter
Oct 4
New
Oct 11
First Quarter
Oct 18
Full

Hourly Weather History & Observations

Time (CDT) Temp. Heat Index Dew Point Humidity Pressure Visibility Wind Dir Wind Speed Gust Speed Precip Events Conditions
12:54 AM 66.0 °F - 60.1 °F 81% 29.74 in 10.0 mi SSE 15.0 mph 21.9 mph N/A   Clear
1:54 AM 64.9 °F - 59.0 °F 81% 29.75 in 10.0 mi SSE 10.4 mph - N/A   Clear
2:54 AM 64.0 °F - 59.0 °F 84% 29.75 in 10.0 mi SSE 11.5 mph - N/A   Clear
3:54 AM 64.0 °F - 57.9 °F 80% 29.74 in 10.0 mi SSE 11.5 mph - N/A   Clear
4:54 AM 64.0 °F - 57.9 °F 80% 29.73 in 10.0 mi SSE 13.8 mph - N/A   Clear
5:54 AM 64.0 °F - 57.9 °F 80% 29.73 in 10.0 mi SSE 16.1 mph 23.0 mph N/A   Clear
6:54 AM 64.0 °F - 57.0 °F 78% 29.73 in 10.0 mi SSE 18.4 mph 27.6 mph N/A   Clear
7:54 AM 64.9 °F - 57.0 °F 75% 29.74 in 10.0 mi SSE 19.6 mph - N/A   Clear
8:54 AM 68.0 °F - 57.0 °F 68% 29.75 in 10.0 mi SSE 20.7 mph 28.8 mph N/A   Clear
9:54 AM 72.0 °F - 55.9 °F 57% 29.74 in 10.0 mi SSE 23.0 mph 34.5 mph N/A   Clear
10:54 AM 77.0 °F - 55.9 °F 48% 29.74 in 10.0 mi SSE 21.9 mph 32.2 mph N/A   Clear
11:54 AM 82.0 °F 81.4 °F 55.0 °F 39% 29.73 in 10.0 mi SSE 26.5 mph 32.2 mph N/A   Clear
12:54 PM 86.0 °F 84.7 °F 55.9 °F 36% 29.72 in 10.0 mi SSE 20.7 mph 34.5 mph N/A   Clear
1:54 PM 88.0 °F 86.5 °F 55.9 °F 34% 29.70 in 10.0 mi SSE 24.2 mph 32.2 mph N/A   Clear
2:54 PM 89.1 °F 87.7 °F 57.0 °F 34% 29.68 in 10.0 mi SSE 24.2 mph 32.2 mph N/A   Clear
3:54 PM 89.1 °F 87.3 °F 55.9 °F 32% 29.68 in 10.0 mi SSE 25.3 mph 35.7 mph N/A   Clear
4:54 PM 88.0 °F 86.5 °F 55.9 °F 34% 29.68 in 10.0 mi SSE 25.3 mph 38.0 mph N/A   Clear
5:54 PM 87.1 °F 85.9 °F 57.0 °F 36% 29.68 in 10.0 mi SSE 21.9 mph 31.1 mph N/A   Clear
6:54 PM 82.9 °F 82.4 °F 57.0 °F 41% 29.70 in 10.0 mi SSE 16.1 mph 25.3 mph N/A   Clear
7:54 PM 80.1 °F 80.6 °F 57.9 °F 47% 29.73 in 10.0 mi SSE 10.4 mph - N/A   Clear
8:54 PM 78.1 °F - 57.9 °F 50% 29.75 in 10.0 mi SE 12.7 mph - N/A   Clear
9:54 PM 75.9 °F - 57.9 °F 54% 29.75 in 10.0 mi SE 17.3 mph 24.2 mph N/A   Clear
10:54 PM 75.0 °F - 57.9 °F 55% 29.75 in 10.0 mi SSE 18.4 mph 25.3 mph N/A   Clear
11:54 PM 73.9 °F - 57.9 °F 57% 29.76 in 10.0 mi SSE 18.4 mph 24.2 mph N/A   Clear